This is the latest recevied weather packets stored in our database for station/object OE3PDB-3. If no packets are shown the sender has not sent any weather packets the latest 10 day(s).
| Time | Temp. | Humidity | Pressure | Rain* | Wind** | Luminosity | Snow |
|---|---|---|---|---|---|---|---|
| 1777446053 | 9.44° C | 47% | 1022.6 hPa | 0 mm | - | - | - |
| 1777445453 | 7.78° C | 47% | 1022.6 hPa | 0 mm | - | - | - |
| 1777444853 | 7.78° C | 44% | 1022.6 hPa | 0 mm | - | - | - |
| 1777444253 | 8.33° C | 44% | 1022.6 hPa | 0 mm | - | - | - |
| 1777443653 | 8.33° C | 48% | 1022.6 hPa | 0 mm | - | - | - |
| 1777443053 | 6.67° C | 50% | 1022.5 hPa | 0 mm | - | - | - |
| 1777442453 | 6.11° C | 48% | 1022.4 hPa | 0 mm | - | - | - |
| 1777441853 | 6.67° C | 46% | 1022.4 hPa | 0 mm | - | - | - |
| 1777441253 | 7.22° C | 45% | 1022.4 hPa | 0 mm | - | - | - |
| 1777440653 | 8.33° C | 45% | 1022.3 hPa | 0 mm | - | - | - |
| 1777440053 | 8.33° C | 49% | 1022.4 hPa | 0 mm | - | - | - |
| 1777439453 | 4.44° C | 55% | 1022.2 hPa | 0 mm | - | - | - |
| 1777438853 | 3.33° C | 53% | 1022.1 hPa | 0 mm | - | - | - |
| 1777438253 | 3.33° C | 53% | 1022.1 hPa | 0 mm | - | - | - |
| 1777437653 | 2.78° C | 54% | 1022 hPa | 0 mm | - | - | - |
| 1777426854 | 5.56° C | 46% | 1021 hPa | 0 mm | - | - | - |
| 1777425654 | 5.56° C | 45% | 1021 hPa | 0 mm | - | - | - |
| 1777425054 | 6.11° C | 45% | 1021 hPa | 0 mm | - | - | - |
| 1777422054 | 7.22° C | 42% | 1021.1 hPa | 0 mm | - | - | - |
| 1777411853 | 9.44° C | 46% | 1020.4 hPa | 0 mm | - | - | - |
| 1777410653 | 9.44° C | 47% | 1020.3 hPa | 0 mm | - | - | - |
| 1777409453 | 10° C | 47% | 1020.1 hPa | 0 mm | - | - | - |
| 1777408853 | 10° C | 47% | 1020 hPa | 0 mm | - | - | - |
| 1777408253 | 10° C | 46% | 1019.9 hPa | 0 mm | - | - | - |
| 1777407653 | 10.56° C | 46% | 1019.8 hPa | 0 mm | - | - | - |
* Rain latest hour (hover to see other rain measurements)
** Current wind speed in m/s (hover to see current wind gust speed)